#timestamp,LO_Frequency,Hit,StdDev 
1636956015.3,286046998.8,N
1636956035.2,286046998.2,N
1636956055.0,286046998.4,N
1636956055.9,286046998.4,N
1636956075.8,286046998.9,N
1636956095.6,286046998.7,N
1636956115.4,286046998.9,N
1636956135.3,286046998.2,N
1636956155.1,286046998.8,N
1636956175.8,286046998.5,N
1636956195.7,286046998.1,N
1636956215.5,286046998.2,N
1636956235.4,286046998.9,N
1636956255.2,286047001.0,N
1636956275.0,286047000.8,N
1636956275.9,286047000.8,N
1636956295.8,286047001.2,N
1636956315.6,286046999.8,N
1636956335.4,286047000.1,N
1636956355.3,286047001.0,N
1636956405.2,286047002.7,E
1636956415.1,286046999.8,N
1636956416.0,286046999.8,P
1636956435.8,286047001.1,P
1636956455.7,286046999.2,N
1636956475.5,286046998.3,N
1636956495.3,286046999.5,N
1636956515.2,286046999.0,N
1636956535.0,286046996.5,Y
1636956535.9,286046996.5,P
1636956555.8,286046998.5,N
1636956575.6,286047000.4,N
1636956595.4,286047000.7,N
1636956615.3,286046998.5,N
1636956635.1,286046998.4,N
1636956655.9,286046998.7,N
1636956675.7,286046998.9,N
1636956695.5,286046998.5,N
1636956715.4,286046998.9,N
1636956735.2,286046998.8,N
1636956755.0,286046999.4,N
1636956755.9,286046999.4,N
1636956775.8,286046998.7,N
1636956795.6,286046999.5,N
1636956815.5,286046996.5,Y
1636956835.3,286047000.9,P
1636956855.1,286046998.8,N
1636956875.9,286046998.1,N
1636956895.7,286047000.9,N
1636956915.6,286047000.9,N
1636956935.4,286046999.7,N
1636956955.2,286047000.0,N
1636956975.1,286047000.3,N
1636956976.0,286047000.3,N
1636956995.8,286047000.3,N
1636957015.6,286047000.0,N
1636957035.5,286047000.1,N
1636957055.3,286047002.7,Y
1636957075.2,286047000.1,P
1636957095.9,286047000.1,N
1636957115.7,286046999.9,N
1636957135.6,286047000.2,N
1636957155.4,286047000.9,Y
1636957175.3,286047000.7,P
1636957195.1,286047000.6,N
1636957196.0,286047000.6,N
1636957215.8,286047000.6,N
1636957235.7,286047000.5,N
1636957255.5,286047001.0,Y
1636957275.3,286046998.5,P
1636957295.2,286047000.9,N
1636957315.0,286047000.7,N
1636957315.9,286047000.7,N
1636957335.8,286047000.7,N
1636957355.6,286047000.9,N
1636957375.4,286047000.8,N
1636957395.3,286047000.9,N
1636957415.1,286047000.3,N
1636957435.8,286046998.6,N
1636957455.7,286046998.1,N
1636957475.5,286047000.7,N
1636957495.4,286047001.1,N
1636957515.2,286047000.6,N
1636957535.0,286047001.0,N
1636957535.9,286047001.0,N
1636957555.8,286047001.1,N
1636957575.6,286047002.7,N
1636957595.4,286047000.3,N
1636957615.3,286047001.0,N
1636957635.1,286046998.1,N
1636957655.9,286046998.2,N
1636957675.7,286047000.7,N
1636957695.5,286047000.1,N
1636957715.4,286047001.1,N
1636957735.2,286047001.2,N
1636957755.0,286047000.8,N
1636957756.0,286047000.8,N
1636957775.8,286047000.6,N
1636957795.6,286046998.4,N
1636957815.5,286047000.2,N
1636957835.3,286047000.1,N
1636957855.1,286047002.3,N
1636957875.9,286047002.4,N
1636957895.7,286047002.3,N
1636957915.6,286047002.7,N
1636957935.4,286047000.4,N
1636957955.2,286047000.5,N
1636957975.1,286046998.1,N
1636957976.0,286046998.1,N
1636957995.8,286047000.2,N
1636958015.7,286047000.7,N
1636958035.5,286047000.4,N
1636958055.3,286047000.4,N
1636958075.2,286047000.0,N
1636958095.0,286047000.8,N
1636958095.9,286047000.8,N
1636958115.7,286047001.1,N
1636958135.6,286047000.7,N
1636958155.4,286047001.0,N
1636958175.3,286047000.9,N
1636958195.1,286046998.1,N
1636958215.8,286046998.5,N
1636958235.7,286046998.1,N
1636958255.5,286046998.1,N
1636958275.4,286046998.6,N
1636958295.2,286047001.2,N
1636958315.0,286046998.5,N
1636958315.9,286046998.5,N
1636958335.8,286046998.3,N
1636958355.6,286046998.6,N
1636958375.5,286046998.6,N
1636958395.3,286046998.2,N
1636958415.1,286046998.7,N
1636958435.9,286046999.1,N
1636958485.7,286046998.3,E
1636958495.7,286047001.1,N
1636958515.5,286047002.0,P
1636958535.3,286047001.4,P
1636958555.2,286047001.4,Y
1636958575.0,286047002.7,P
1636958575.9,286047002.7,P
1636958595.8,286047002.8,P
1636958615.6,286046999.7,N
1636958635.4,286047000.0,N
1636958655.3,286047002.3,N
1636958675.1,286047000.1,N
1636958695.8,286047000.4,N
1636958715.7,286047000.0,N
1636958735.5,286047000.6,N
1636958755.4,286046998.4,N
1636958775.2,286046998.3,N
1636958795.0,286047000.5,N
1636958795.9,286047000.5,N
1636958815.8,286046999.9,N
1636958835.6,286047000.2,N
1636958855.4,286047000.9,N
1636958875.3,286047000.0,N
1636958895.1,286047000.8,N
1636958915.9,286047000.7,N
1636958935.7,286047000.5,N
1636958955.5,286047001.0,N
1636958975.4,286047000.8,N
1636958995.2,286046998.9,N
1636959015.1,286046999.4,N
1636959016.0,286046999.4,N
1636959035.8,286046999.1,N
1636959055.6,286046998.6,N
1636959075.5,286047001.0,N
1636959095.3,286047001.1,N
1636959115.1,286047000.5,N
1636959135.9,286047001.0,N
1636959155.7,286047000.9,N
1636959175.6,286047000.9,N
1636959195.4,286047002.4,N
1636959215.2,286047002.3,N
1636959235.1,286047003.9,Y
1636959236.0,286047003.9,P
1636959255.8,286047001.4,N
1636959275.7,286047001.7,N
1636959295.5,286047002.0,N
1636959315.3,286047001.9,N
1636959335.2,286047002.7,N
1636959355.0,286047001.6,N
1636959355.9,286047001.6,N
1636959375.8,286047002.7,N
1636959395.6,286047001.8,N
1636959415.4,286047002.6,N
1636959435.3,286047004.4,Y
1636959455.1,286046998.1,P
1636959475.8,286046999.4,N
1636959495.7,286046999.5,N
1636959515.5,286046999.6,N
1636959535.4,286046997.1,N
1636959555.2,286046996.8,N
1636959575.0,286046996.9,N
1636959575.9,286046996.9,N
1636959595.8,286046997.0,N
